Index of /20260426/WXO-DD/model_rdps/10km/12/024
Name Last modified Size Description
Parent Directory -
20260426T12Z_MSC_RDPS_AbsoluteVorticity_IsbL-0250_RLatLon0.09_PT024H.grib2 2026-04-26 14:49 599K
20260426T12Z_MSC_RDPS_AbsoluteVorticity_IsbL-0500_RLatLon0.09_PT024H.grib2 2026-04-26 14:49 556K
20260426T12Z_MSC_RDPS_AbsoluteVorticity_IsbL-0700_RLatLon0.09_PT024H.grib2 2026-04-26 14:49 618K
20260426T12Z_MSC_RDPS_AbsoluteVorticity_IsbL-0850_RLatLon0.09_PT024H.grib2 2026-04-26 14:49 784K
20260426T12Z_MSC_RDPS_AirTemp_AGL-120m_RLatLon0.09_PT024H.grib2 2026-04-26 14:49 385K
20260426T12Z_MSC_RDPS_AirTemp_AGL-2m_RLatLon0.09_PT024H.grib2 2026-04-26 14:49 645K
20260426T12Z_MSC_RDPS_AirTemp_AGL-40m_RLatLon0.09_PT024H.grib2 2026-04-26 14:49 415K
20260426T12Z_MSC_RDPS_AirTemp_AGL-80m_RLatLon0.09_PT024H.grib2 2026-04-26 14:49 407K
20260426T12Z_MSC_RDPS_AirTemp_IsbL-0001_RLatLon0.09_PT024H.grib2 2026-04-26 14:49 259K
20260426T12Z_MSC_RDPS_AirTemp_IsbL-0005_RLatLon0.09_PT024H.grib2 2026-04-26 14:49 331K
20260426T12Z_MSC_RDPS_AirTemp_IsbL-0010_RLatLon0.09_PT024H.grib2 2026-04-26 14:49 303K
20260426T12Z_MSC_RDPS_AirTemp_IsbL-0020_RLatLon0.09_PT024H.grib2 2026-04-26 14:49 320K
20260426T12Z_MSC_RDPS_AirTemp_IsbL-0030_RLatLon0.09_PT024H.grib2 2026-04-26 14:49 338K
20260426T12Z_MSC_RDPS_AirTemp_IsbL-0050_RLatLon0.09_PT024H.grib2 2026-04-26 14:49 317K
20260426T12Z_MSC_RDPS_AirTemp_IsbL-0100_RLatLon0.09_PT024H.grib2 2026-04-26 14:49 419K
20260426T12Z_MSC_RDPS_AirTemp_IsbL-0150_RLatLon0.09_PT024H.grib2 2026-04-26 14:49 438K
20260426T12Z_MSC_RDPS_AirTemp_IsbL-0175_RLatLon0.09_PT024H.grib2 2026-04-26 14:49 403K
20260426T12Z_MSC_RDPS_AirTemp_IsbL-0200_RLatLon0.09_PT024H.grib2 2026-04-26 14:49 412K
20260426T12Z_MSC_RDPS_AirTemp_IsbL-0225_RLatLon0.09_PT024H.grib2 2026-04-26 14:49 416K
20260426T12Z_MSC_RDPS_AirTemp_IsbL-0250_RLatLon0.09_PT024H.grib2 2026-04-26 14:49 420K
20260426T12Z_MSC_RDPS_AirTemp_IsbL-0275_RLatLon0.09_PT024H.grib2 2026-04-26 14:49 401K
20260426T12Z_MSC_RDPS_AirTemp_IsbL-0300_RLatLon0.09_PT024H.grib2 2026-04-26 14:49 408K
20260426T12Z_MSC_RDPS_AirTemp_IsbL-0350_RLatLon0.09_PT024H.grib2 2026-04-26 14:49 418K
20260426T12Z_MSC_RDPS_AirTemp_IsbL-0400_RLatLon0.09_PT024H.grib2 2026-04-26 14:49 419K
20260426T12Z_MSC_RDPS_AirTemp_IsbL-0450_RLatLon0.09_PT024H.grib2 2026-04-26 14:49 426K
20260426T12Z_MSC_RDPS_AirTemp_IsbL-0500_RLatLon0.09_PT024H.grib2 2026-04-26 14:49 440K
20260426T12Z_MSC_RDPS_AirTemp_IsbL-0550_RLatLon0.09_PT024H.grib2 2026-04-26 14:49 423K
20260426T12Z_MSC_RDPS_AirTemp_IsbL-0600_RLatLon0.09_PT024H.grib2 2026-04-26 14:49 441K
20260426T12Z_MSC_RDPS_AirTemp_IsbL-0650_RLatLon0.09_PT024H.grib2 2026-04-26 14:49 454K
20260426T12Z_MSC_RDPS_AirTemp_IsbL-0700_RLatLon0.09_PT024H.grib2 2026-04-26 14:49 480K
20260426T12Z_MSC_RDPS_AirTemp_IsbL-0750_RLatLon0.09_PT024H.grib2 2026-04-26 14:49 410K
20260426T12Z_MSC_RDPS_AirTemp_IsbL-0800_RLatLon0.09_PT024H.grib2 2026-04-26 14:49 462K
20260426T12Z_MSC_RDPS_AirTemp_IsbL-0850_RLatLon0.09_PT024H.grib2 2026-04-26 14:49 508K
20260426T12Z_MSC_RDPS_AirTemp_IsbL-0875_RLatLon0.09_PT024H.grib2 2026-04-26 14:49 521K
20260426T12Z_MSC_RDPS_AirTemp_IsbL-0900_RLatLon0.09_PT024H.grib2 2026-04-26 14:49 525K
20260426T12Z_MSC_RDPS_AirTemp_IsbL-0925_RLatLon0.09_PT024H.grib2 2026-04-26 14:49 526K
20260426T12Z_MSC_RDPS_AirTemp_IsbL-0950_RLatLon0.09_PT024H.grib2 2026-04-26 14:49 527K
20260426T12Z_MSC_RDPS_AirTemp_IsbL-0970_RLatLon0.09_PT024H.grib2 2026-04-26 14:49 526K
20260426T12Z_MSC_RDPS_AirTemp_IsbL-0985_RLatLon0.09_PT024H.grib2 2026-04-26 14:49 521K
20260426T12Z_MSC_RDPS_AirTemp_IsbL-1000_RLatLon0.09_PT024H.grib2 2026-04-26 14:49 505K
20260426T12Z_MSC_RDPS_AirTemp_IsbL-1015_RLatLon0.09_PT024H.grib2 2026-04-26 14:49 497K
20260426T12Z_MSC_RDPS_Albedo_Sfc_RLatLon0.09_PT024H.grib2 2026-04-26 14:49 158K
20260426T12Z_MSC_RDPS_CAPE_Sfc_RLatLon0.09_PT024H.grib2 2026-04-26 14:49 1.7M
20260426T12Z_MSC_RDPS_CIN_Sfc_RLatLon0.09_PT024H.grib2 2026-04-26 14:49 1.1M
20260426T12Z_MSC_RDPS_CloudWater_EAtm_RLatLon0.09_PT024H.grib2 2026-04-26 14:49 217K
20260426T12Z_MSC_RDPS_ConvectivePrecip-Accum_Sfc_RLatLon0.09_PT024H.grib2 2026-04-26 14:49 902K
20260426T12Z_MSC_RDPS_DewPointDepression_AGL-2m_RLatLon0.09_PT024H.grib2 2026-04-26 14:49 397K
20260426T12Z_MSC_RDPS_DewPointDepression_IsbL-0001_RLatLon0.09_PT024H.grib2 2026-04-26 14:49 193
20260426T12Z_MSC_RDPS_DewPointDepression_IsbL-0005_RLatLon0.09_PT024H.grib2 2026-04-26 14:49 193
20260426T12Z_MSC_RDPS_DewPointDepression_IsbL-0010_RLatLon0.09_PT024H.grib2 2026-04-26 14:49 193
20260426T12Z_MSC_RDPS_DewPointDepression_IsbL-0020_RLatLon0.09_PT024H.grib2 2026-04-26 14:49 193
20260426T12Z_MSC_RDPS_DewPointDepression_IsbL-0030_RLatLon0.09_PT024H.grib2 2026-04-26 14:49 193
20260426T12Z_MSC_RDPS_DewPointDepression_IsbL-0050_RLatLon0.09_PT024H.grib2 2026-04-26 14:49 92K
20260426T12Z_MSC_RDPS_DewPointDepression_IsbL-0100_RLatLon0.09_PT024H.grib2 2026-04-26 14:49 126K
20260426T12Z_MSC_RDPS_DewPointDepression_IsbL-0150_RLatLon0.09_PT024H.grib2 2026-04-26 14:49 148K
20260426T12Z_MSC_RDPS_DewPointDepression_IsbL-0175_RLatLon0.09_PT024H.grib2 2026-04-26 14:49 177K
20260426T12Z_MSC_RDPS_DewPointDepression_IsbL-0200_RLatLon0.09_PT024H.grib2 2026-04-26 14:49 218K
20260426T12Z_MSC_RDPS_DewPointDepression_IsbL-0225_RLatLon0.09_PT024H.grib2 2026-04-26 14:49 259K
20260426T12Z_MSC_RDPS_DewPointDepression_IsbL-0250_RLatLon0.09_PT024H.grib2 2026-04-26 14:49 295K
20260426T12Z_MSC_RDPS_DewPointDepression_IsbL-0275_RLatLon0.09_PT024H.grib2 2026-04-26 14:49 306K
20260426T12Z_MSC_RDPS_DewPointDepression_IsbL-0300_RLatLon0.09_PT024H.grib2 2026-04-26 14:49 323K
20260426T12Z_MSC_RDPS_DewPointDepression_IsbL-0350_RLatLon0.09_PT024H.grib2 2026-04-26 14:49 328K
20260426T12Z_MSC_RDPS_DewPointDepression_IsbL-0400_RLatLon0.09_PT024H.grib2 2026-04-26 14:49 344K
20260426T12Z_MSC_RDPS_DewPointDepression_IsbL-0450_RLatLon0.09_PT024H.grib2 2026-04-26 14:49 353K
20260426T12Z_MSC_RDPS_DewPointDepression_IsbL-0500_RLatLon0.09_PT024H.grib2 2026-04-26 14:49 357K
20260426T12Z_MSC_RDPS_DewPointDepression_IsbL-0550_RLatLon0.09_PT024H.grib2 2026-04-26 14:49 366K
20260426T12Z_MSC_RDPS_DewPointDepression_IsbL-0600_RLatLon0.09_PT024H.grib2 2026-04-26 14:49 376K
20260426T12Z_MSC_RDPS_DewPointDepression_IsbL-0650_RLatLon0.09_PT024H.grib2 2026-04-26 14:49 381K
20260426T12Z_MSC_RDPS_DewPointDepression_IsbL-0700_RLatLon0.09_PT024H.grib2 2026-04-26 14:49 394K
20260426T12Z_MSC_RDPS_DewPointDepression_IsbL-0750_RLatLon0.09_PT024H.grib2 2026-04-26 14:49 420K
20260426T12Z_MSC_RDPS_DewPointDepression_IsbL-0800_RLatLon0.09_PT024H.grib2 2026-04-26 14:49 456K
20260426T12Z_MSC_RDPS_DewPointDepression_IsbL-0850_RLatLon0.09_PT024H.grib2 2026-04-26 14:49 477K
20260426T12Z_MSC_RDPS_DewPointDepression_IsbL-0875_RLatLon0.09_PT024H.grib2 2026-04-26 14:49 475K
20260426T12Z_MSC_RDPS_DewPointDepression_IsbL-0900_RLatLon0.09_PT024H.grib2 2026-04-26 14:49 464K
20260426T12Z_MSC_RDPS_DewPointDepression_IsbL-0925_RLatLon0.09_PT024H.grib2 2026-04-26 14:49 454K
20260426T12Z_MSC_RDPS_DewPointDepression_IsbL-0950_RLatLon0.09_PT024H.grib2 2026-04-26 14:49 443K
20260426T12Z_MSC_RDPS_DewPointDepression_IsbL-0970_RLatLon0.09_PT024H.grib2 2026-04-26 14:49 439K
20260426T12Z_MSC_RDPS_DewPointDepression_IsbL-0985_RLatLon0.09_PT024H.grib2 2026-04-26 14:49 435K
20260426T12Z_MSC_RDPS_DewPointDepression_IsbL-1000_RLatLon0.09_PT024H.grib2 2026-04-26 14:49 432K
20260426T12Z_MSC_RDPS_DewPointDepression_IsbL-1015_RLatLon0.09_PT024H.grib2 2026-04-26 14:49 425K
20260426T12Z_MSC_RDPS_DewPoint_AGL-2m_RLatLon0.09_PT024H.grib2 2026-04-26 14:49 314K
20260426T12Z_MSC_RDPS_DownwardLongwaveRadiationFlux-Accum_Sfc_RLatLon0.09_PT024H.grib2 2026-04-26 14:49 445K
20260426T12Z_MSC_RDPS_DownwardShortwaveRadiationFlux-Accum_NTAtm_RLatLon0.09_PT024H.grib2 2026-04-26 14:49 119K
20260426T12Z_MSC_RDPS_DownwardShortwaveRadiationFlux-Accum_Sfc_RLatLon0.09_PT024H.grib2 2026-04-26 14:49 645K
20260426T12Z_MSC_RDPS_FreezingRain-Accum12h_Sfc_RLatLon0.09_PT024H.grib2 2026-04-26 14:49 93K
20260426T12Z_MSC_RDPS_FreezingRain-Accum1h_Sfc_RLatLon0.09_PT024H.grib2 2026-04-26 14:49 50K
20260426T12Z_MSC_RDPS_FreezingRain-Accum24h_Sfc_RLatLon0.09_PT024H.grib2 2026-04-26 14:49 106K
20260426T12Z_MSC_RDPS_FreezingRain-Accum3h_Sfc_RLatLon0.09_PT024H.grib2 2026-04-26 14:49 68K
20260426T12Z_MSC_RDPS_FreezingRain-Accum6h_Sfc_RLatLon0.09_PT024H.grib2 2026-04-26 14:49 81K
20260426T12Z_MSC_RDPS_FreezingRain-Accum_Sfc_RLatLon0.09_PT024H.grib2 2026-04-26 14:49 117K
20260426T12Z_MSC_RDPS_GeopotentialHeight_IsbL-0001_RLatLon0.09_PT024H.grib2 2026-04-26 14:49 271K
20260426T12Z_MSC_RDPS_GeopotentialHeight_IsbL-0005_RLatLon0.09_PT024H.grib2 2026-04-26 14:49 339K
20260426T12Z_MSC_RDPS_GeopotentialHeight_IsbL-0010_RLatLon0.09_PT024H.grib2 2026-04-26 14:49 308K
20260426T12Z_MSC_RDPS_GeopotentialHeight_IsbL-0020_RLatLon0.09_PT024H.grib2 2026-04-26 14:49 306K
20260426T12Z_MSC_RDPS_GeopotentialHeight_IsbL-0030_RLatLon0.09_PT024H.grib2 2026-04-26 14:49 309K
20260426T12Z_MSC_RDPS_GeopotentialHeight_IsbL-0050_RLatLon0.09_PT024H.grib2 2026-04-26 14:49 309K
20260426T12Z_MSC_RDPS_GeopotentialHeight_IsbL-0100_RLatLon0.09_PT024H.grib2 2026-04-26 14:49 289K
20260426T12Z_MSC_RDPS_GeopotentialHeight_IsbL-0150_RLatLon0.09_PT024H.grib2 2026-04-26 14:49 227K
20260426T12Z_MSC_RDPS_GeopotentialHeight_IsbL-0175_RLatLon0.09_PT024H.grib2 2026-04-26 14:49 229K
20260426T12Z_MSC_RDPS_GeopotentialHeight_IsbL-0200_RLatLon0.09_PT024H.grib2 2026-04-26 14:49 232K
20260426T12Z_MSC_RDPS_GeopotentialHeight_IsbL-0225_RLatLon0.09_PT024H.grib2 2026-04-26 14:49 234K
20260426T12Z_MSC_RDPS_GeopotentialHeight_IsbL-0250_RLatLon0.09_PT024H.grib2 2026-04-26 14:49 236K
20260426T12Z_MSC_RDPS_GeopotentialHeight_IsbL-0275_RLatLon0.09_PT024H.grib2 2026-04-26 14:49 235K
20260426T12Z_MSC_RDPS_GeopotentialHeight_IsbL-0300_RLatLon0.09_PT024H.grib2 2026-04-26 14:49 235K
20260426T12Z_MSC_RDPS_GeopotentialHeight_IsbL-0350_RLatLon0.09_PT024H.grib2 2026-04-26 14:49 231K
20260426T12Z_MSC_RDPS_GeopotentialHeight_IsbL-0400_RLatLon0.09_PT024H.grib2 2026-04-26 14:49 228K
20260426T12Z_MSC_RDPS_GeopotentialHeight_IsbL-0450_RLatLon0.09_PT024H.grib2 2026-04-26 14:49 297K
20260426T12Z_MSC_RDPS_GeopotentialHeight_IsbL-0500_RLatLon0.09_PT024H.grib2 2026-04-26 14:49 291K
20260426T12Z_MSC_RDPS_GeopotentialHeight_IsbL-0550_RLatLon0.09_PT024H.grib2 2026-04-26 14:49 287K
20260426T12Z_MSC_RDPS_GeopotentialHeight_IsbL-0600_RLatLon0.09_PT024H.grib2 2026-04-26 14:49 284K
20260426T12Z_MSC_RDPS_GeopotentialHeight_IsbL-0650_RLatLon0.09_PT024H.grib2 2026-04-26 14:49 282K
20260426T12Z_MSC_RDPS_GeopotentialHeight_IsbL-0700_RLatLon0.09_PT024H.grib2 2026-04-26 14:49 280K
20260426T12Z_MSC_RDPS_GeopotentialHeight_IsbL-0750_RLatLon0.09_PT024H.grib2 2026-04-26 14:49 255K
20260426T12Z_MSC_RDPS_GeopotentialHeight_IsbL-0800_RLatLon0.09_PT024H.grib2 2026-04-26 14:49 261K
20260426T12Z_MSC_RDPS_GeopotentialHeight_IsbL-0850_RLatLon0.09_PT024H.grib2 2026-04-26 14:49 268K
20260426T12Z_MSC_RDPS_GeopotentialHeight_IsbL-0875_RLatLon0.09_PT024H.grib2 2026-04-26 14:49 271K
20260426T12Z_MSC_RDPS_GeopotentialHeight_IsbL-0900_RLatLon0.09_PT024H.grib2 2026-04-26 14:49 274K
20260426T12Z_MSC_RDPS_GeopotentialHeight_IsbL-0925_RLatLon0.09_PT024H.grib2 2026-04-26 14:49 277K
20260426T12Z_MSC_RDPS_GeopotentialHeight_IsbL-0950_RLatLon0.09_PT024H.grib2 2026-04-26 14:49 279K
20260426T12Z_MSC_RDPS_GeopotentialHeight_IsbL-0970_RLatLon0.09_PT024H.grib2 2026-04-26 14:49 284K
20260426T12Z_MSC_RDPS_GeopotentialHeight_IsbL-0985_RLatLon0.09_PT024H.grib2 2026-04-26 14:49 291K
20260426T12Z_MSC_RDPS_GeopotentialHeight_IsbL-1000_RLatLon0.09_PT024H.grib2 2026-04-26 14:49 302K
20260426T12Z_MSC_RDPS_GeopotentialHeight_IsbL-1015_RLatLon0.09_PT024H.grib2 2026-04-26 14:49 314K
20260426T12Z_MSC_RDPS_Humidex_Sfc_RLatLon0.09_PT024H.grib2 2026-04-26 14:49 2.4M
20260426T12Z_MSC_RDPS_IcePellets-Accum12h_Sfc_RLatLon0.09_PT024H.grib2 2026-04-26 14:49 8.1K
20260426T12Z_MSC_RDPS_IcePellets-Accum1h_Sfc_RLatLon0.09_PT024H.grib2 2026-04-26 14:49 6.8K
20260426T12Z_MSC_RDPS_IcePellets-Accum24h_Sfc_RLatLon0.09_PT024H.grib2 2026-04-26 14:49 13K
20260426T12Z_MSC_RDPS_IcePellets-Accum3h_Sfc_RLatLon0.09_PT024H.grib2 2026-04-26 14:49 8.3K
20260426T12Z_MSC_RDPS_IcePellets-Accum6h_Sfc_RLatLon0.09_PT024H.grib2 2026-04-26 14:49 7.4K
20260426T12Z_MSC_RDPS_IcePellets-Accum_Sfc_RLatLon0.09_PT024H.grib2 2026-04-26 14:49 15K
20260426T12Z_MSC_RDPS_KIndex_Sfc_RLatLon0.09_PT024H.grib2 2026-04-26 14:49 2.4M
20260426T12Z_MSC_RDPS_LatentHeatNetFlux_Sfc_RLatLon0.09_PT024H.grib2 2026-04-26 14:49 332K
20260426T12Z_MSC_RDPS_LiftedIndex-MU-VT_IsbL-0500_RLatLon0.09_PT024H.grib2 2026-04-26 14:49 2.4M
20260426T12Z_MSC_RDPS_NetLongwaveRadiationFlux-Accum_Sfc_RLatLon0.09_PT024H.grib2 2026-04-26 14:49 588K
20260426T12Z_MSC_RDPS_NetShortwaveRadiationFlux-Accum_Sfc_RLatLon0.09_PT024H.grib2 2026-04-26 14:49 644K
20260426T12Z_MSC_RDPS_PlanetaryBoundaryLayerHeight_Sfc_RLatLon0.09_PT024H.grib2 2026-04-26 14:49 1.1M
20260426T12Z_MSC_RDPS_Precip-Accum12h_Sfc_RLatLon0.09_PT024H.grib2 2026-04-26 14:49 1.7M
20260426T12Z_MSC_RDPS_Precip-Accum1h_Sfc_RLatLon0.09_PT024H.grib2 2026-04-26 14:49 1.3M
20260426T12Z_MSC_RDPS_Precip-Accum24h_Sfc_RLatLon0.09_PT024H.grib2 2026-04-26 14:49 1.8M
20260426T12Z_MSC_RDPS_Precip-Accum3h_Sfc_RLatLon0.09_PT024H.grib2 2026-04-26 14:49 1.4M
20260426T12Z_MSC_RDPS_Precip-Accum6h_Sfc_RLatLon0.09_PT024H.grib2 2026-04-26 14:49 1.5M
20260426T12Z_MSC_RDPS_Precip-Accum_Sfc_RLatLon0.09_PT024H.grib2 2026-04-26 14:49 1.8M
20260426T12Z_MSC_RDPS_PrecipRate_Sfc_RLatLon0.09_PT024H.grib2 2026-04-26 14:49 170K
20260426T12Z_MSC_RDPS_PrecipType-Instant_Sfc_RLatLon0.09_PT024H.grib2 2026-04-26 14:49 613K
20260426T12Z_MSC_RDPS_Pressure-Trend3h_Sfc_RLatLon0.09_PT024H.grib2 2026-04-26 14:49 1.2M
20260426T12Z_MSC_RDPS_Pressure_MSL_RLatLon0.09_PT024H.grib2 2026-04-26 14:49 326K
20260426T12Z_MSC_RDPS_Pressure_PVU-1.5_RLatLon0.09_PT024H.grib2 2026-04-26 14:49 2.3M
20260426T12Z_MSC_RDPS_Pressure_PVU-1_RLatLon0.09_PT024H.grib2 2026-04-26 14:49 2.4M
20260426T12Z_MSC_RDPS_Pressure_PVU-2_RLatLon0.09_PT024H.grib2 2026-04-26 14:49 2.4M
20260426T12Z_MSC_RDPS_Pressure_Sfc_RLatLon0.09_PT024H.grib2 2026-04-26 14:49 501K
20260426T12Z_MSC_RDPS_RadiativeTemp_Sfc_RLatLon0.09_PT024H.grib2 2026-04-26 14:49 305K
20260426T12Z_MSC_RDPS_Rain-Accum12h_Sfc_RLatLon0.09_PT024H.grib2 2026-04-26 14:49 1.1M
20260426T12Z_MSC_RDPS_Rain-Accum1h_Sfc_RLatLon0.09_PT024H.grib2 2026-04-26 14:49 628K
20260426T12Z_MSC_RDPS_Rain-Accum24h_Sfc_RLatLon0.09_PT024H.grib2 2026-04-26 14:49 1.3M
20260426T12Z_MSC_RDPS_Rain-Accum3h_Sfc_RLatLon0.09_PT024H.grib2 2026-04-26 14:49 628K
20260426T12Z_MSC_RDPS_Rain-Accum6h_Sfc_RLatLon0.09_PT024H.grib2 2026-04-26 14:49 1.0M
20260426T12Z_MSC_RDPS_Rain-Accum_Sfc_RLatLon0.09_PT024H.grib2 2026-04-26 14:49 1.4M
20260426T12Z_MSC_RDPS_RelativeHumidity_AGL-2m_RLatLon0.09_PT024H.grib2 2026-04-26 14:49 1.0M
20260426T12Z_MSC_RDPS_RelativeHumidity_IsbL-0010_RLatLon0.09_PT024H.grib2 2026-04-26 14:49 636K
20260426T12Z_MSC_RDPS_RelativeHumidity_IsbL-0020_RLatLon0.09_PT024H.grib2 2026-04-26 14:49 658K
20260426T12Z_MSC_RDPS_RelativeHumidity_IsbL-0030_RLatLon0.09_PT024H.grib2 2026-04-26 14:49 542K
20260426T12Z_MSC_RDPS_RelativeHumidity_IsbL-0050_RLatLon0.09_PT024H.grib2 2026-04-26 14:49 327K
20260426T12Z_MSC_RDPS_RelativeHumidity_IsbL-0100_RLatLon0.09_PT024H.grib2 2026-04-26 14:49 376K
20260426T12Z_MSC_RDPS_RelativeHumidity_IsbL-0150_RLatLon0.09_PT024H.grib2 2026-04-26 14:49 398K
20260426T12Z_MSC_RDPS_RelativeHumidity_IsbL-0175_RLatLon0.09_PT024H.grib2 2026-04-26 14:49 467K
20260426T12Z_MSC_RDPS_RelativeHumidity_IsbL-0200_RLatLon0.09_PT024H.grib2 2026-04-26 14:49 543K
20260426T12Z_MSC_RDPS_RelativeHumidity_IsbL-0225_RLatLon0.09_PT024H.grib2 2026-04-26 14:49 612K
20260426T12Z_MSC_RDPS_RelativeHumidity_IsbL-0250_RLatLon0.09_PT024H.grib2 2026-04-26 14:49 683K
20260426T12Z_MSC_RDPS_RelativeHumidity_IsbL-0275_RLatLon0.09_PT024H.grib2 2026-04-26 14:49 710K
20260426T12Z_MSC_RDPS_RelativeHumidity_IsbL-0300_RLatLon0.09_PT024H.grib2 2026-04-26 14:49 755K
20260426T12Z_MSC_RDPS_RelativeHumidity_IsbL-0350_RLatLon0.09_PT024H.grib2 2026-04-26 14:49 775K
20260426T12Z_MSC_RDPS_RelativeHumidity_IsbL-0400_RLatLon0.09_PT024H.grib2 2026-04-26 14:49 791K
20260426T12Z_MSC_RDPS_RelativeHumidity_IsbL-0450_RLatLon0.09_PT024H.grib2 2026-04-26 14:49 806K
20260426T12Z_MSC_RDPS_RelativeHumidity_IsbL-0500_RLatLon0.09_PT024H.grib2 2026-04-26 14:49 812K
20260426T12Z_MSC_RDPS_RelativeHumidity_IsbL-0550_RLatLon0.09_PT024H.grib2 2026-04-26 14:49 828K
20260426T12Z_MSC_RDPS_RelativeHumidity_IsbL-0600_RLatLon0.09_PT024H.grib2 2026-04-26 14:49 846K
20260426T12Z_MSC_RDPS_RelativeHumidity_IsbL-0650_RLatLon0.09_PT024H.grib2 2026-04-26 14:49 868K
20260426T12Z_MSC_RDPS_RelativeHumidity_IsbL-0700_RLatLon0.09_PT024H.grib2 2026-04-26 14:49 897K
20260426T12Z_MSC_RDPS_RelativeHumidity_IsbL-0750_RLatLon0.09_PT024H.grib2 2026-04-26 14:49 944K
20260426T12Z_MSC_RDPS_RelativeHumidity_IsbL-0800_RLatLon0.09_PT024H.grib2 2026-04-26 14:49 1.0M
20260426T12Z_MSC_RDPS_RelativeHumidity_IsbL-0850_RLatLon0.09_PT024H.grib2 2026-04-26 14:49 1.0M
20260426T12Z_MSC_RDPS_RelativeHumidity_IsbL-0875_RLatLon0.09_PT024H.grib2 2026-04-26 14:49 1.1M
20260426T12Z_MSC_RDPS_RelativeHumidity_IsbL-0900_RLatLon0.09_PT024H.grib2 2026-04-26 14:49 1.1M
20260426T12Z_MSC_RDPS_RelativeHumidity_IsbL-0925_RLatLon0.09_PT024H.grib2 2026-04-26 14:49 1.1M
20260426T12Z_MSC_RDPS_RelativeHumidity_IsbL-0950_RLatLon0.09_PT024H.grib2 2026-04-26 14:49 1.1M
20260426T12Z_MSC_RDPS_RelativeHumidity_IsbL-0970_RLatLon0.09_PT024H.grib2 2026-04-26 14:49 1.1M
20260426T12Z_MSC_RDPS_RelativeHumidity_IsbL-0985_RLatLon0.09_PT024H.grib2 2026-04-26 14:49 1.0M
20260426T12Z_MSC_RDPS_RelativeHumidity_IsbL-1000_RLatLon0.09_PT024H.grib2 2026-04-26 14:49 1.0M
20260426T12Z_MSC_RDPS_RelativeHumidity_IsbL-1015_RLatLon0.09_PT024H.grib2 2026-04-26 14:49 1.0M
20260426T12Z_MSC_RDPS_Runoff-Accum_Sfc_RLatLon0.09_PT024H.grib2 2026-04-26 14:49 63K
20260426T12Z_MSC_RDPS_SWEATIndex_Sfc_RLatLon0.09_PT024H.grib2 2026-04-26 14:50 2.4M
20260426T12Z_MSC_RDPS_SeeingIndex_EAtm_RLatLon0.09_PT024H.grib2 2026-04-26 14:49 1.0M
20260426T12Z_MSC_RDPS_SensibleHeatNetFlux_Sfc_RLatLon0.09_PT024H.grib2 2026-04-26 14:49 311K
20260426T12Z_MSC_RDPS_ShowalterIndex_IsbL-0500_RLatLon0.09_PT024H.grib2 2026-04-26 14:49 2.6M
20260426T12Z_MSC_RDPS_SkyTransparencyIndex_EAtm_RLatLon0.09_PT024H.grib2 2026-04-26 14:49 736K
20260426T12Z_MSC_RDPS_Snow-Accum12h_Sfc_RLatLon0.09_PT024H.grib2 2026-04-26 14:49 596K
20260426T12Z_MSC_RDPS_Snow-Accum1h_Sfc_RLatLon0.09_PT024H.grib2 2026-04-26 14:49 499K
20260426T12Z_MSC_RDPS_Snow-Accum24h_Sfc_RLatLon0.09_PT024H.grib2 2026-04-26 14:49 720K
20260426T12Z_MSC_RDPS_Snow-Accum3h_Sfc_RLatLon0.09_PT024H.grib2 2026-04-26 14:49 449K
20260426T12Z_MSC_RDPS_Snow-Accum6h_Sfc_RLatLon0.09_PT024H.grib2 2026-04-26 14:49 585K
20260426T12Z_MSC_RDPS_Snow-Accum_Sfc_RLatLon0.09_PT024H.grib2 2026-04-26 14:49 770K
20260426T12Z_MSC_RDPS_SnowDensity_Sfc_RLatLon0.09_PT024H.grib2 2026-04-26 14:49 184K
20260426T12Z_MSC_RDPS_SnowDepth_Sfc_RLatLon0.09_PT024H.grib2 2026-04-26 14:49 727K
20260426T12Z_MSC_RDPS_SoilTemp_DBS-0to10cm_RLatLon0.09_PT024H.grib2 2026-04-26 14:49 218K
20260426T12Z_MSC_RDPS_SoilTemp_Sfc_RLatLon0.09_PT024H.grib2 2026-04-26 14:49 265K
20260426T12Z_MSC_RDPS_SoilVolumetricIceContent_Sfc_RLatLon0.09_PT024H.grib2 2026-04-26 14:49 169K
20260426T12Z_MSC_RDPS_SoilVolumetricWaterContent_DBS-0to10cm_RLatLon0.09_PT024H.grib2 2026-04-26 14:49 258K
20260426T12Z_MSC_RDPS_SoilVolumetricWaterContent_DBS-0to1cm_RLatLon0.09_PT024H.grib2 2026-04-26 14:49 338K
20260426T12Z_MSC_RDPS_SpecificHumidity_AGL-120m_RLatLon0.09_PT024H.grib2 2026-04-26 14:49 488K
20260426T12Z_MSC_RDPS_SpecificHumidity_AGL-2m_RLatLon0.09_PT024H.grib2 2026-04-26 14:49 658K
20260426T12Z_MSC_RDPS_SpecificHumidity_AGL-40m_RLatLon0.09_PT024H.grib2 2026-04-26 14:49 494K
20260426T12Z_MSC_RDPS_SpecificHumidity_AGL-80m_RLatLon0.09_PT024H.grib2 2026-04-26 14:49 490K
20260426T12Z_MSC_RDPS_SpecificHumidity_IsbL-0001_RLatLon0.09_PT024H.grib2 2026-04-26 14:49 338K
20260426T12Z_MSC_RDPS_SpecificHumidity_IsbL-0005_RLatLon0.09_PT024H.grib2 2026-04-26 14:49 359K
20260426T12Z_MSC_RDPS_SpecificHumidity_IsbL-0010_RLatLon0.09_PT024H.grib2 2026-04-26 14:49 399K
20260426T12Z_MSC_RDPS_SpecificHumidity_IsbL-0020_RLatLon0.09_PT024H.grib2 2026-04-26 14:49 391K
20260426T12Z_MSC_RDPS_SpecificHumidity_IsbL-0030_RLatLon0.09_PT024H.grib2 2026-04-26 14:49 478K
20260426T12Z_MSC_RDPS_SpecificHumidity_IsbL-0050_RLatLon0.09_PT024H.grib2 2026-04-26 14:49 472K
20260426T12Z_MSC_RDPS_SpecificHumidity_IsbL-0100_RLatLon0.09_PT024H.grib2 2026-04-26 14:49 421K
20260426T12Z_MSC_RDPS_SpecificHumidity_IsbL-0150_RLatLon0.09_PT024H.grib2 2026-04-26 14:49 350K
20260426T12Z_MSC_RDPS_SpecificHumidity_IsbL-0175_RLatLon0.09_PT024H.grib2 2026-04-26 14:49 539K
20260426T12Z_MSC_RDPS_SpecificHumidity_IsbL-0200_RLatLon0.09_PT024H.grib2 2026-04-26 14:49 448K
20260426T12Z_MSC_RDPS_SpecificHumidity_IsbL-0225_RLatLon0.09_PT024H.grib2 2026-04-26 14:49 553K
20260426T12Z_MSC_RDPS_SpecificHumidity_IsbL-0250_RLatLon0.09_PT024H.grib2 2026-04-26 14:49 551K
20260426T12Z_MSC_RDPS_SpecificHumidity_IsbL-0275_RLatLon0.09_PT024H.grib2 2026-04-26 14:49 466K
20260426T12Z_MSC_RDPS_SpecificHumidity_IsbL-0300_RLatLon0.09_PT024H.grib2 2026-04-26 14:49 536K
20260426T12Z_MSC_RDPS_SpecificHumidity_IsbL-0350_RLatLon0.09_PT024H.grib2 2026-04-26 14:49 526K
20260426T12Z_MSC_RDPS_SpecificHumidity_IsbL-0400_RLatLon0.09_PT024H.grib2 2026-04-26 14:50 509K
20260426T12Z_MSC_RDPS_SpecificHumidity_IsbL-0450_RLatLon0.09_PT024H.grib2 2026-04-26 14:50 568K
20260426T12Z_MSC_RDPS_SpecificHumidity_IsbL-0500_RLatLon0.09_PT024H.grib2 2026-04-26 14:50 505K
20260426T12Z_MSC_RDPS_SpecificHumidity_IsbL-0550_RLatLon0.09_PT024H.grib2 2026-04-26 14:50 559K
20260426T12Z_MSC_RDPS_SpecificHumidity_IsbL-0600_RLatLon0.09_PT024H.grib2 2026-04-26 14:50 625K
20260426T12Z_MSC_RDPS_SpecificHumidity_IsbL-0650_RLatLon0.09_PT024H.grib2 2026-04-26 14:50 666K
20260426T12Z_MSC_RDPS_SpecificHumidity_IsbL-0700_RLatLon0.09_PT024H.grib2 2026-04-26 14:50 589K
20260426T12Z_MSC_RDPS_SpecificHumidity_IsbL-0750_RLatLon0.09_PT024H.grib2 2026-04-26 14:50 649K
20260426T12Z_MSC_RDPS_SpecificHumidity_IsbL-0800_RLatLon0.09_PT024H.grib2 2026-04-26 14:50 726K
20260426T12Z_MSC_RDPS_SpecificHumidity_IsbL-0850_RLatLon0.09_PT024H.grib2 2026-04-26 14:50 802K
20260426T12Z_MSC_RDPS_SpecificHumidity_IsbL-0875_RLatLon0.09_PT024H.grib2 2026-04-26 14:50 823K
20260426T12Z_MSC_RDPS_SpecificHumidity_IsbL-0900_RLatLon0.09_PT024H.grib2 2026-04-26 14:50 832K
20260426T12Z_MSC_RDPS_SpecificHumidity_IsbL-0925_RLatLon0.09_PT024H.grib2 2026-04-26 14:50 834K
20260426T12Z_MSC_RDPS_SpecificHumidity_IsbL-0950_RLatLon0.09_PT024H.grib2 2026-04-26 14:50 830K
20260426T12Z_MSC_RDPS_SpecificHumidity_IsbL-0970_RLatLon0.09_PT024H.grib2 2026-04-26 14:50 823K
20260426T12Z_MSC_RDPS_SpecificHumidity_IsbL-0985_RLatLon0.09_PT024H.grib2 2026-04-26 14:50 819K
20260426T12Z_MSC_RDPS_SpecificHumidity_IsbL-1000_RLatLon0.09_PT024H.grib2 2026-04-26 14:50 676K
20260426T12Z_MSC_RDPS_SpecificHumidity_IsbL-1015_RLatLon0.09_PT024H.grib2 2026-04-26 14:50 668K
20260426T12Z_MSC_RDPS_SpecificHumidity_Sfc_RLatLon0.09_PT024H.grib2 2026-04-26 14:50 292K
20260426T12Z_MSC_RDPS_StormRelativeHelicity_EtaL-10000_RLatLon0.09_PT024H.grib2 2026-04-26 14:50 1.1M
20260426T12Z_MSC_RDPS_StormSeverityIndex_EtaL-10000_RLatLon0.09_PT024H.grib2 2026-04-26 14:50 1.2M
20260426T12Z_MSC_RDPS_Thickness_IsbL-0850to0700_RLatLon0.09_PT024H.grib2 2026-04-26 14:50 175K
20260426T12Z_MSC_RDPS_Thickness_IsbL-1000to0500_RLatLon0.09_PT024H.grib2 2026-04-26 14:50 198K
20260426T12Z_MSC_RDPS_Thickness_IsbL-1000to0850_RLatLon0.09_PT024H.grib2 2026-04-26 14:50 185K
20260426T12Z_MSC_RDPS_TotalCloudCover_Sfc_RLatLon0.09_PT024H.grib2 2026-04-26 14:50 681K
20260426T12Z_MSC_RDPS_TotalTotalsIndex_Sfc_RLatLon0.09_PT024H.grib2 2026-04-26 14:50 2.4M
20260426T12Z_MSC_RDPS_UVIndex-ClearSky_Sfc_RLatLon0.09_PT024H.grib2 2026-04-26 14:50 138K
20260426T12Z_MSC_RDPS_UVIndex_Sfc_RLatLon0.09_PT024H.grib2 2026-04-26 14:50 334K
20260426T12Z_MSC_RDPS_UpwardLongwaveRadiationFlux_NTAtm_RLatLon0.09_PT024H.grib2 2026-04-26 14:50 482K
20260426T12Z_MSC_RDPS_UpwardShortwaveRadiationFlux_NTAtm_RLatLon0.09_PT024H.grib2 2026-04-26 14:50 303K
20260426T12Z_MSC_RDPS_VerticalVelocity_IsbL-0250_RLatLon0.09_PT024H.grib2 2026-04-26 14:50 543K
20260426T12Z_MSC_RDPS_VerticalVelocity_IsbL-0500_RLatLon0.09_PT024H.grib2 2026-04-26 14:50 538K
20260426T12Z_MSC_RDPS_VerticalVelocity_IsbL-0700_RLatLon0.09_PT024H.grib2 2026-04-26 14:50 590K
20260426T12Z_MSC_RDPS_VerticalVelocity_IsbL-0850_RLatLon0.09_PT024H.grib2 2026-04-26 14:50 699K
20260426T12Z_MSC_RDPS_VerticalWindShear_EtaL-6500_RLatLon0.09_PT024H.grib2 2026-04-26 14:50 1.2M
20260426T12Z_MSC_RDPS_WindChill_Sfc_RLatLon0.09_PT024H.grib2 2026-04-26 14:50 1.3M
20260426T12Z_MSC_RDPS_WindDir_AGL-10m_RLatLon0.09_PT024H.grib2 2026-04-26 14:50 1.0M
20260426T12Z_MSC_RDPS_WindDir_AGL-120m_RLatLon0.09_PT024H.grib2 2026-04-26 14:50 619K
20260426T12Z_MSC_RDPS_WindDir_AGL-40m_RLatLon0.09_PT024H.grib2 2026-04-26 14:50 653K
20260426T12Z_MSC_RDPS_WindDir_AGL-80m_RLatLon0.09_PT024H.grib2 2026-04-26 14:50 632K
20260426T12Z_MSC_RDPS_WindDir_IsbL-0001_RLatLon0.09_PT024H.grib2 2026-04-26 14:50 311K
20260426T12Z_MSC_RDPS_WindDir_IsbL-0005_RLatLon0.09_PT024H.grib2 2026-04-26 14:50 352K
20260426T12Z_MSC_RDPS_WindDir_IsbL-0010_RLatLon0.09_PT024H.grib2 2026-04-26 14:50 378K
20260426T12Z_MSC_RDPS_WindDir_IsbL-0020_RLatLon0.09_PT024H.grib2 2026-04-26 14:50 400K
20260426T12Z_MSC_RDPS_WindDir_IsbL-0030_RLatLon0.09_PT024H.grib2 2026-04-26 14:50 415K
20260426T12Z_MSC_RDPS_WindDir_IsbL-0050_RLatLon0.09_PT024H.grib2 2026-04-26 14:50 432K
20260426T12Z_MSC_RDPS_WindDir_IsbL-0100_RLatLon0.09_PT024H.grib2 2026-04-26 14:50 405K
20260426T12Z_MSC_RDPS_WindDir_IsbL-0150_RLatLon0.09_PT024H.grib2 2026-04-26 14:50 402K
20260426T12Z_MSC_RDPS_WindDir_IsbL-0175_RLatLon0.09_PT024H.grib2 2026-04-26 14:50 431K
20260426T12Z_MSC_RDPS_WindDir_IsbL-0200_RLatLon0.09_PT024H.grib2 2026-04-26 14:50 449K
20260426T12Z_MSC_RDPS_WindDir_IsbL-0225_RLatLon0.09_PT024H.grib2 2026-04-26 14:50 449K
20260426T12Z_MSC_RDPS_WindDir_IsbL-0250_RLatLon0.09_PT024H.grib2 2026-04-26 14:50 449K
20260426T12Z_MSC_RDPS_WindDir_IsbL-0275_RLatLon0.09_PT024H.grib2 2026-04-26 14:50 474K
20260426T12Z_MSC_RDPS_WindDir_IsbL-0300_RLatLon0.09_PT024H.grib2 2026-04-26 14:50 474K
20260426T12Z_MSC_RDPS_WindDir_IsbL-0350_RLatLon0.09_PT024H.grib2 2026-04-26 14:50 496K
20260426T12Z_MSC_RDPS_WindDir_IsbL-0400_RLatLon0.09_PT024H.grib2 2026-04-26 14:50 507K
20260426T12Z_MSC_RDPS_WindDir_IsbL-0450_RLatLon0.09_PT024H.grib2 2026-04-26 14:50 521K
20260426T12Z_MSC_RDPS_WindDir_IsbL-0500_RLatLon0.09_PT024H.grib2 2026-04-26 14:50 535K
20260426T12Z_MSC_RDPS_WindDir_IsbL-0550_RLatLon0.09_PT024H.grib2 2026-04-26 14:50 548K
20260426T12Z_MSC_RDPS_WindDir_IsbL-0600_RLatLon0.09_PT024H.grib2 2026-04-26 14:50 579K
20260426T12Z_MSC_RDPS_WindDir_IsbL-0650_RLatLon0.09_PT024H.grib2 2026-04-26 14:50 627K
20260426T12Z_MSC_RDPS_WindDir_IsbL-0700_RLatLon0.09_PT024H.grib2 2026-04-26 14:50 674K
20260426T12Z_MSC_RDPS_WindDir_IsbL-0750_RLatLon0.09_PT024H.grib2 2026-04-26 14:50 725K
20260426T12Z_MSC_RDPS_WindDir_IsbL-0800_RLatLon0.09_PT024H.grib2 2026-04-26 14:50 803K
20260426T12Z_MSC_RDPS_WindDir_IsbL-0850_RLatLon0.09_PT024H.grib2 2026-04-26 14:50 867K
20260426T12Z_MSC_RDPS_WindDir_IsbL-0875_RLatLon0.09_PT024H.grib2 2026-04-26 14:50 889K
20260426T12Z_MSC_RDPS_WindDir_IsbL-0900_RLatLon0.09_PT024H.grib2 2026-04-26 14:50 906K
20260426T12Z_MSC_RDPS_WindDir_IsbL-0925_RLatLon0.09_PT024H.grib2 2026-04-26 14:50 918K
20260426T12Z_MSC_RDPS_WindDir_IsbL-0950_RLatLon0.09_PT024H.grib2 2026-04-26 14:50 920K
20260426T12Z_MSC_RDPS_WindDir_IsbL-0970_RLatLon0.09_PT024H.grib2 2026-04-26 14:50 927K
20260426T12Z_MSC_RDPS_WindDir_IsbL-0985_RLatLon0.09_PT024H.grib2 2026-04-26 14:50 943K
20260426T12Z_MSC_RDPS_WindDir_IsbL-1000_RLatLon0.09_PT024H.grib2 2026-04-26 14:50 961K
20260426T12Z_MSC_RDPS_WindDir_IsbL-1015_RLatLon0.09_PT024H.grib2 2026-04-26 14:50 1.0M
20260426T12Z_MSC_RDPS_WindGust-Max_AGL-10m_RLatLon0.09_PT024H.grib2 2026-04-26 14:50 968K
20260426T12Z_MSC_RDPS_WindGust-Min_AGL-10m_RLatLon0.09_PT024H.grib2 2026-04-26 14:50 1.0M
20260426T12Z_MSC_RDPS_WindGust_AGL-10m_RLatLon0.09_PT024H.grib2 2026-04-26 14:50 1.0M
20260426T12Z_MSC_RDPS_WindSpeed_AGL-10m_RLatLon0.09_PT024H.grib2 2026-04-26 14:50 860K
20260426T12Z_MSC_RDPS_WindSpeed_AGL-120m_RLatLon0.09_PT024H.grib2 2026-04-26 14:50 563K
20260426T12Z_MSC_RDPS_WindSpeed_AGL-40m_RLatLon0.09_PT024H.grib2 2026-04-26 14:50 566K
20260426T12Z_MSC_RDPS_WindSpeed_AGL-80m_RLatLon0.09_PT024H.grib2 2026-04-26 14:50 565K
20260426T12Z_MSC_RDPS_WindSpeed_IsbL-0001_RLatLon0.09_PT024H.grib2 2026-04-26 14:50 251K
20260426T12Z_MSC_RDPS_WindSpeed_IsbL-0005_RLatLon0.09_PT024H.grib2 2026-04-26 14:50 299K
20260426T12Z_MSC_RDPS_WindSpeed_IsbL-0010_RLatLon0.09_PT024H.grib2 2026-04-26 14:50 403K
20260426T12Z_MSC_RDPS_WindSpeed_IsbL-0020_RLatLon0.09_PT024H.grib2 2026-04-26 14:50 323K
20260426T12Z_MSC_RDPS_WindSpeed_IsbL-0030_RLatLon0.09_PT024H.grib2 2026-04-26 14:50 323K
20260426T12Z_MSC_RDPS_WindSpeed_IsbL-0050_RLatLon0.09_PT024H.grib2 2026-04-26 14:50 356K
20260426T12Z_MSC_RDPS_WindSpeed_IsbL-0100_RLatLon0.09_PT024H.grib2 2026-04-26 14:50 472K
20260426T12Z_MSC_RDPS_WindSpeed_IsbL-0150_RLatLon0.09_PT024H.grib2 2026-04-26 14:50 370K
20260426T12Z_MSC_RDPS_WindSpeed_IsbL-0175_RLatLon0.09_PT024H.grib2 2026-04-26 14:50 418K
20260426T12Z_MSC_RDPS_WindSpeed_IsbL-0200_RLatLon0.09_PT024H.grib2 2026-04-26 14:50 434K
20260426T12Z_MSC_RDPS_WindSpeed_IsbL-0225_RLatLon0.09_PT024H.grib2 2026-04-26 14:50 442K
20260426T12Z_MSC_RDPS_WindSpeed_IsbL-0250_RLatLon0.09_PT024H.grib2 2026-04-26 14:50 446K
20260426T12Z_MSC_RDPS_WindSpeed_IsbL-0275_RLatLon0.09_PT024H.grib2 2026-04-26 14:50 464K
20260426T12Z_MSC_RDPS_WindSpeed_IsbL-0300_RLatLon0.09_PT024H.grib2 2026-04-26 14:50 462K
20260426T12Z_MSC_RDPS_WindSpeed_IsbL-0350_RLatLon0.09_PT024H.grib2 2026-04-26 14:50 455K
20260426T12Z_MSC_RDPS_WindSpeed_IsbL-0400_RLatLon0.09_PT024H.grib2 2026-04-26 14:50 456K
20260426T12Z_MSC_RDPS_WindSpeed_IsbL-0450_RLatLon0.09_PT024H.grib2 2026-04-26 14:50 455K
20260426T12Z_MSC_RDPS_WindSpeed_IsbL-0500_RLatLon0.09_PT024H.grib2 2026-04-26 14:50 454K
20260426T12Z_MSC_RDPS_WindSpeed_IsbL-0550_RLatLon0.09_PT024H.grib2 2026-04-26 14:50 573K
20260426T12Z_MSC_RDPS_WindSpeed_IsbL-0600_RLatLon0.09_PT024H.grib2 2026-04-26 14:50 586K
20260426T12Z_MSC_RDPS_WindSpeed_IsbL-0650_RLatLon0.09_PT024H.grib2 2026-04-26 14:50 608K
20260426T12Z_MSC_RDPS_WindSpeed_IsbL-0700_RLatLon0.09_PT024H.grib2 2026-04-26 14:50 632K
20260426T12Z_MSC_RDPS_WindSpeed_IsbL-0750_RLatLon0.09_PT024H.grib2 2026-04-26 14:50 707K
20260426T12Z_MSC_RDPS_WindSpeed_IsbL-0800_RLatLon0.09_PT024H.grib2 2026-04-26 14:50 762K
20260426T12Z_MSC_RDPS_WindSpeed_IsbL-0850_RLatLon0.09_PT024H.grib2 2026-04-26 14:50 773K
20260426T12Z_MSC_RDPS_WindSpeed_IsbL-0875_RLatLon0.09_PT024H.grib2 2026-04-26 14:50 791K
20260426T12Z_MSC_RDPS_WindSpeed_IsbL-0900_RLatLon0.09_PT024H.grib2 2026-04-26 14:50 852K
20260426T12Z_MSC_RDPS_WindSpeed_IsbL-0925_RLatLon0.09_PT024H.grib2 2026-04-26 14:50 866K
20260426T12Z_MSC_RDPS_WindSpeed_IsbL-0950_RLatLon0.09_PT024H.grib2 2026-04-26 14:50 869K
20260426T12Z_MSC_RDPS_WindSpeed_IsbL-0970_RLatLon0.09_PT024H.grib2 2026-04-26 14:50 869K
20260426T12Z_MSC_RDPS_WindSpeed_IsbL-0985_RLatLon0.09_PT024H.grib2 2026-04-26 14:50 868K
20260426T12Z_MSC_RDPS_WindSpeed_IsbL-1000_RLatLon0.09_PT024H.grib2 2026-04-26 14:50 863K
20260426T12Z_MSC_RDPS_WindSpeed_IsbL-1015_RLatLon0.09_PT024H.grib2 2026-04-26 14:50 857K
20260426T12Z_MSC_RDPS_WindU_AGL-10m_RLatLon0.09_PT024H.grib2 2026-04-26 14:50 392K
20260426T12Z_MSC_RDPS_WindU_AGL-120m_RLatLon0.09_PT024H.grib2 2026-04-26 14:50 428K
20260426T12Z_MSC_RDPS_WindU_AGL-40m_RLatLon0.09_PT024H.grib2 2026-04-26 14:50 432K
20260426T12Z_MSC_RDPS_WindU_AGL-80m_RLatLon0.09_PT024H.grib2 2026-04-26 14:50 430K
20260426T12Z_MSC_RDPS_WindU_IsbL-0001_RLatLon0.09_PT024H.grib2 2026-04-26 14:50 266K
20260426T12Z_MSC_RDPS_WindU_IsbL-0005_RLatLon0.09_PT024H.grib2 2026-04-26 14:50 332K
20260426T12Z_MSC_RDPS_WindU_IsbL-0010_RLatLon0.09_PT024H.grib2 2026-04-26 14:50 301K
20260426T12Z_MSC_RDPS_WindU_IsbL-0020_RLatLon0.09_PT024H.grib2 2026-04-26 14:50 355K
20260426T12Z_MSC_RDPS_WindU_IsbL-0030_RLatLon0.09_PT024H.grib2 2026-04-26 14:50 354K
20260426T12Z_MSC_RDPS_WindU_IsbL-0050_RLatLon0.09_PT024H.grib2 2026-04-26 14:50 384K
20260426T12Z_MSC_RDPS_WindU_IsbL-0100_RLatLon0.09_PT024H.grib2 2026-04-26 14:50 429K
20260426T12Z_MSC_RDPS_WindU_IsbL-0150_RLatLon0.09_PT024H.grib2 2026-04-26 14:50 387K
20260426T12Z_MSC_RDPS_WindU_IsbL-0175_RLatLon0.09_PT024H.grib2 2026-04-26 14:50 413K
20260426T12Z_MSC_RDPS_WindU_IsbL-0200_RLatLon0.09_PT024H.grib2 2026-04-26 14:50 330K
20260426T12Z_MSC_RDPS_WindU_IsbL-0225_RLatLon0.09_PT024H.grib2 2026-04-26 14:50 336K
20260426T12Z_MSC_RDPS_WindU_IsbL-0250_RLatLon0.09_PT024H.grib2 2026-04-26 14:50 337K
20260426T12Z_MSC_RDPS_WindU_IsbL-0275_RLatLon0.09_PT024H.grib2 2026-04-26 14:50 351K
20260426T12Z_MSC_RDPS_WindU_IsbL-0300_RLatLon0.09_PT024H.grib2 2026-04-26 14:50 348K
20260426T12Z_MSC_RDPS_WindU_IsbL-0350_RLatLon0.09_PT024H.grib2 2026-04-26 14:50 356K
20260426T12Z_MSC_RDPS_WindU_IsbL-0400_RLatLon0.09_PT024H.grib2 2026-04-26 14:50 460K
20260426T12Z_MSC_RDPS_WindU_IsbL-0450_RLatLon0.09_PT024H.grib2 2026-04-26 14:50 461K
20260426T12Z_MSC_RDPS_WindU_IsbL-0500_RLatLon0.09_PT024H.grib2 2026-04-26 14:50 462K
20260426T12Z_MSC_RDPS_WindU_IsbL-0550_RLatLon0.09_PT024H.grib2 2026-04-26 14:50 463K
20260426T12Z_MSC_RDPS_WindU_IsbL-0600_RLatLon0.09_PT024H.grib2 2026-04-26 14:50 474K
20260426T12Z_MSC_RDPS_WindU_IsbL-0650_RLatLon0.09_PT024H.grib2 2026-04-26 14:50 493K
20260426T12Z_MSC_RDPS_WindU_IsbL-0700_RLatLon0.09_PT024H.grib2 2026-04-26 14:50 514K
20260426T12Z_MSC_RDPS_WindU_IsbL-0750_RLatLon0.09_PT024H.grib2 2026-04-26 14:50 542K
20260426T12Z_MSC_RDPS_WindU_IsbL-0800_RLatLon0.09_PT024H.grib2 2026-04-26 14:50 588K
20260426T12Z_MSC_RDPS_WindU_IsbL-0850_RLatLon0.09_PT024H.grib2 2026-04-26 14:50 636K
20260426T12Z_MSC_RDPS_WindU_IsbL-0875_RLatLon0.09_PT024H.grib2 2026-04-26 14:50 651K
20260426T12Z_MSC_RDPS_WindU_IsbL-0900_RLatLon0.09_PT024H.grib2 2026-04-26 14:50 654K
20260426T12Z_MSC_RDPS_WindU_IsbL-0925_RLatLon0.09_PT024H.grib2 2026-04-26 14:50 664K
20260426T12Z_MSC_RDPS_WindU_IsbL-0950_RLatLon0.09_PT024H.grib2 2026-04-26 14:50 663K
20260426T12Z_MSC_RDPS_WindU_IsbL-0970_RLatLon0.09_PT024H.grib2 2026-04-26 14:50 661K
20260426T12Z_MSC_RDPS_WindU_IsbL-0985_RLatLon0.09_PT024H.grib2 2026-04-26 14:50 660K
20260426T12Z_MSC_RDPS_WindU_IsbL-1000_RLatLon0.09_PT024H.grib2 2026-04-26 14:50 659K
20260426T12Z_MSC_RDPS_WindU_IsbL-1015_RLatLon0.09_PT024H.grib2 2026-04-26 14:50 655K
20260426T12Z_MSC_RDPS_WindV_AGL-10m_RLatLon0.09_PT024H.grib2 2026-04-26 14:50 440K
20260426T12Z_MSC_RDPS_WindV_AGL-120m_RLatLon0.09_PT024H.grib2 2026-04-26 14:50 427K
20260426T12Z_MSC_RDPS_WindV_AGL-40m_RLatLon0.09_PT024H.grib2 2026-04-26 14:50 549K
20260426T12Z_MSC_RDPS_WindV_AGL-80m_RLatLon0.09_PT024H.grib2 2026-04-26 14:50 547K
20260426T12Z_MSC_RDPS_WindV_IsbL-0001_RLatLon0.09_PT024H.grib2 2026-04-26 14:50 289K
20260426T12Z_MSC_RDPS_WindV_IsbL-0005_RLatLon0.09_PT024H.grib2 2026-04-26 14:50 332K
20260426T12Z_MSC_RDPS_WindV_IsbL-0010_RLatLon0.09_PT024H.grib2 2026-04-26 14:50 302K
20260426T12Z_MSC_RDPS_WindV_IsbL-0020_RLatLon0.09_PT024H.grib2 2026-04-26 14:50 318K
20260426T12Z_MSC_RDPS_WindV_IsbL-0030_RLatLon0.09_PT024H.grib2 2026-04-26 14:50 356K
20260426T12Z_MSC_RDPS_WindV_IsbL-0050_RLatLon0.09_PT024H.grib2 2026-04-26 14:50 348K
20260426T12Z_MSC_RDPS_WindV_IsbL-0100_RLatLon0.09_PT024H.grib2 2026-04-26 14:50 329K
20260426T12Z_MSC_RDPS_WindV_IsbL-0150_RLatLon0.09_PT024H.grib2 2026-04-26 14:50 384K
20260426T12Z_MSC_RDPS_WindV_IsbL-0175_RLatLon0.09_PT024H.grib2 2026-04-26 14:50 317K
20260426T12Z_MSC_RDPS_WindV_IsbL-0200_RLatLon0.09_PT024H.grib2 2026-04-26 14:50 330K
20260426T12Z_MSC_RDPS_WindV_IsbL-0225_RLatLon0.09_PT024H.grib2 2026-04-26 14:50 335K
20260426T12Z_MSC_RDPS_WindV_IsbL-0250_RLatLon0.09_PT024H.grib2 2026-04-26 14:50 362K
20260426T12Z_MSC_RDPS_WindV_IsbL-0275_RLatLon0.09_PT024H.grib2 2026-04-26 14:50 374K
20260426T12Z_MSC_RDPS_WindV_IsbL-0300_RLatLon0.09_PT024H.grib2 2026-04-26 14:50 371K
20260426T12Z_MSC_RDPS_WindV_IsbL-0350_RLatLon0.09_PT024H.grib2 2026-04-26 14:50 354K
20260426T12Z_MSC_RDPS_WindV_IsbL-0400_RLatLon0.09_PT024H.grib2 2026-04-26 14:50 355K
20260426T12Z_MSC_RDPS_WindV_IsbL-0450_RLatLon0.09_PT024H.grib2 2026-04-26 14:50 456K
20260426T12Z_MSC_RDPS_WindV_IsbL-0500_RLatLon0.09_PT024H.grib2 2026-04-26 14:50 456K
20260426T12Z_MSC_RDPS_WindV_IsbL-0550_RLatLon0.09_PT024H.grib2 2026-04-26 14:50 458K
20260426T12Z_MSC_RDPS_WindV_IsbL-0600_RLatLon0.09_PT024H.grib2 2026-04-26 14:50 468K
20260426T12Z_MSC_RDPS_WindV_IsbL-0650_RLatLon0.09_PT024H.grib2 2026-04-26 14:50 487K
20260426T12Z_MSC_RDPS_WindV_IsbL-0700_RLatLon0.09_PT024H.grib2 2026-04-26 14:50 508K
20260426T12Z_MSC_RDPS_WindV_IsbL-0750_RLatLon0.09_PT024H.grib2 2026-04-26 14:50 522K
20260426T12Z_MSC_RDPS_WindV_IsbL-0800_RLatLon0.09_PT024H.grib2 2026-04-26 14:50 571K
20260426T12Z_MSC_RDPS_WindV_IsbL-0850_RLatLon0.09_PT024H.grib2 2026-04-26 14:50 620K
20260426T12Z_MSC_RDPS_WindV_IsbL-0875_RLatLon0.09_PT024H.grib2 2026-04-26 14:50 637K
20260426T12Z_MSC_RDPS_WindV_IsbL-0900_RLatLon0.09_PT024H.grib2 2026-04-26 14:50 650K
20260426T12Z_MSC_RDPS_WindV_IsbL-0925_RLatLon0.09_PT024H.grib2 2026-04-26 14:50 659K
20260426T12Z_MSC_RDPS_WindV_IsbL-0950_RLatLon0.09_PT024H.grib2 2026-04-26 14:50 660K
20260426T12Z_MSC_RDPS_WindV_IsbL-0970_RLatLon0.09_PT024H.grib2 2026-04-26 14:50 659K
20260426T12Z_MSC_RDPS_WindV_IsbL-0985_RLatLon0.09_PT024H.grib2 2026-04-26 14:50 799K
20260426T12Z_MSC_RDPS_WindV_IsbL-1000_RLatLon0.09_PT024H.grib2 2026-04-26 14:50 798K
20260426T12Z_MSC_RDPS_WindV_IsbL-1015_RLatLon0.09_PT024H.grib2 2026-04-26 14:50 792K